Starlink 32417

operational
NORAD ID: 61673 Int'l Des: 2024-193 Owner: SPXS Country: US Constellation: starlink
LEOCIRCULAR

关于 Starlink 32417

正在加载描述...

实时位置

正在加载3D地球...

即将过境

高度历史

Altitude vs Time

uPlot chart will show altitude changes over time

两行轨道根数

1 61673U 24193N 25350.63989201 .00000479 00000-0 28280-4 0 9999
2 61673 53.1601 116.6030 0000917 80.2900 279.8205 15.30197166 63814
Epoch: Dec 16, 2025 • Age: 25 hours

当前状态

高度 491.0 km
速度 7.62 km/s
星下点 -45.15°S, 94.24°E
发射日期 Oct 26, 2024
运行时间 1.1 years
类型 internet

技术详情

分类 Payload
质量 730.00 kg
干质量 700.00 kg
总质量 730.00 kg
长度 0.30 m
直径 4.10 m
跨度 29.00 m
形状 Box + pan
制造商 SPXS
平台类型 Starlink V2M
阶段状态 In Orbit
所有者/国家 SPXS/US

大型星座

Loading constellations...